Volver al catálogo

RADUGA 27

ActivoMilitarGEO
NORAD 21132·PAYLOAD·🇷🇺 Russia

Lanzado Feb 28, 1991 desde Baikonur Cosmodrome

Loading…

TLE

ActualizadoSource: Space-Track

Época: Sep 14, 2026, 14:23 UTC

1 21132U 91014A   26257.59997444 -.00000370  00000-0  00000-0 0  9998
2 21132  13.2560 336.1805 0001448 274.1371  84.5132  1.00305028130204

Sigue RADUGA 27 en tiempo real con AllMySat

Download on the App Store